Hourly Weather Barsuki

Today, 19 June, Saturday

Time Temperature Precipitation Wind Pressure Humidity
00:00 +17°C° 0 mm 2 mps 754 mmHg 88%
01:00 +17°C° 0 mm 2 mps 753 mmHg 90%
02:00 +16°C° 0 mm 2 mps 753 mmHg 92%
03:00 +16°C° 0 mm 2 mps 753 mmHg 92%
04:00 +16°C° 0 mm 2 mps 753 mmHg 92%
05:00 +16°C° 0 mm 2 mps 754 mmHg 92%
06:00 +18°C° 0 mm 2 mps 754 mmHg 86%
07:00 +20°C° 0 mm 3 mps 754 mmHg 79%
08:00 +22°C° 0 mm 3 mps 754 mmHg 73%
09:00 +24°C° 0 mm 3 mps 753 mmHg 68%
10:00 +25°C° 0 mm 3 mps 753 mmHg 63%
11:00 +27°C° 0 mm 4 mps 753 mmHg 58%
12:00 +27°C° 0 mm 4 mps 753 mmHg 56%
13:00 +28°C° 0 mm 4 mps 753 mmHg 54%
14:00 +28°C° 0 mm 4 mps 752 mmHg 51%
15:00 +28°C° 0 mm 4 mps 752 mmHg 54%
16:00 +28°C° 0 mm 3 mps 752 mmHg 57%
17:00 +28°C° 0 mm 3 mps 752 mmHg 60%
18:00 +26°C° 0 mm 3 mps 752 mmHg 67%
19:00 +25°C° 0 mm 2 mps 752 mmHg 74%
20:00 +23°C° 0 mm 2 mps 751 mmHg 80%
21:00 +21°C° 0 mm 2 mps 751 mmHg 83%
22:00 +20°C° 0 mm 2 mps 752 mmHg 87%
23:00 +19°C° 0 mm 2 mps 752 mmHg 90%

Tomorrow, 20 June, Sunday

Time Temperature Precipitation Wind Pressure Humidity
00:00 +19°C° 0 mm 2 mps 752 mmHg 91%
01:00 +19°C° 0 mm 2 mps 752 mmHg 93%
02:00 +18°C° 0 mm 2 mps 752 mmHg 94%
03:00 +18°C° 0 mm 2 mps 752 mmHg 94%
04:00 +19°C° 0 mm 2 mps 752 mmHg 95%
05:00 +19°C° 0 mm 2 mps 751 mmHg 95%
06:00 +20°C° 0 mm 3 mps 751 mmHg 89%
07:00 +22°C° 0 mm 3 mps 751 mmHg 84%
08:00 +25°C° 0 mm 3 mps 751 mmHg 78%
09:00 +26°C° 0 mm 4 mps 751 mmHg 73%
10:00 +27°C° 0 mm 4 mps 751 mmHg 68%
11:00 +28°C° 0 mm 5 mps 751 mmHg 62%
12:00 +29°C° 0 mm 4 mps 751 mmHg 60%
13:00 +29°C° 0 mm 4 mps 750 mmHg 58%
14:00 +30°C° 0 mm 4 mps 750 mmHg 56%
15:00 +29°C° 0.2 mm 4 mps 750 mmHg 59%
16:00 +29°C° 0.2 mm 4 mps 749 mmHg 63%
17:00 +29°C° 0.2 mm 4 mps 749 mmHg 66%
18:00 +27°C° 0.2 mm 3 mps 749 mmHg 72%
19:00 +26°C° 0.2 mm 3 mps 749 mmHg 78%
20:00 +24°C° 0.2 mm 3 mps 749 mmHg 84%
21:00 +22°C° 0 mm 3 mps 749 mmHg 86%
22:00 +21°C° 0 mm 3 mps 749 mmHg 88%
23:00 +20°C° 0 mm 3 mps 749 mmHg 91%

Day after tomorrow, 21 June, Monday

Time Temperature Precipitation Wind Pressure Humidity
00:00 +20°C° 0 mm 3 mps 749 mmHg 92%
01:00 +19°C° 0 mm 3 mps 749 mmHg 93%
02:00 +19°C° 0 mm 3 mps 749 mmHg 94%
03:00 +19°C° 0 mm 3 mps 749 mmHg 94%
04:00 +18°C° 0 mm 2 mps 749 mmHg 94%
05:00 +18°C° 0 mm 2 mps 749 mmHg 94%
06:00 +20°C° 0 mm 3 mps 749 mmHg 88%
07:00 +21°C° 0 mm 3 mps 749 mmHg 81%
08:00 +23°C° 0 mm 4 mps 749 mmHg 75%
09:00 +25°C° 0 mm 4 mps 748 mmHg 69%
10:00 +27°C° 0 mm 5 mps 748 mmHg 62%
11:00 +28°C° 0 mm 5 mps 748 mmHg 56%
12:00 +28°C° 0 mm 5 mps 748 mmHg 56%
13:00 +29°C° 0 mm 5 mps 747 mmHg 56%
14:00 +29°C° 0 mm 5 mps 747 mmHg 56%
15:00 +29°C° 0.3 mm 5 mps 747 mmHg 61%
16:00 +28°C° 0.3 mm 4 mps 747 mmHg 67%
17:00 +27°C° 0.3 mm 4 mps 747 mmHg 72%
18:00 +26°C° 0.3 mm 3 mps 747 mmHg 76%
19:00 +25°C° 0.3 mm 3 mps 746 mmHg 80%
20:00 +24°C° 0.3 mm 2 mps 746 mmHg 84%
21:00 +23°C° 0 mm 2 mps 746 mmHg 87%
22:00 +23°C° 0 mm 2 mps 746 mmHg 89%
23:00 +21°C° 0 mm 2 mps 746 mmHg 92%

22 June, Tuesday

Time Temperature Precipitation Wind Pressure Humidity
00:00 +20°C° 0 mm 2 mps 746 mmHg 93%
01:00 +20°C° 0 mm 2 mps 747 mmHg 94%
02:00 +20°C° 0 mm 2 mps 747 mmHg 95%
03:00 +20°C° 0 mm 2 mps 747 mmHg 95%
04:00 +20°C° 0 mm 2 mps 747 mmHg 96%
05:00 +20°C° 0 mm 2 mps 747 mmHg 96%
06:00 +21°C° 0 mm 3 mps 747 mmHg 91%
07:00 +24°C° 0 mm 3 mps 747 mmHg 85%
08:00 +26°C° 0 mm 3 mps 747 mmHg 80%
09:00 +27°C° 0.2 mm 4 mps 747 mmHg 74%
10:00 +28°C° 0.2 mm 4 mps 747 mmHg 69%
11:00 +29°C° 0.2 mm 4 mps 748 mmHg 64%
12:00 +29°C° 0.3 mm 4 mps 748 mmHg 63%
13:00 +30°C° 0.3 mm 4 mps 748 mmHg 62%
14:00 +30°C° 0.3 mm 4 mps 748 mmHg 61%
15:00 +30°C° 0.4 mm 4 mps 748 mmHg 63%
16:00 +30°C° 0.4 mm 3 mps 748 mmHg 65%
17:00 +29°C° 0.4 mm 3 mps 748 mmHg 66%
18:00 +28°C° 0.6 mm 3 mps 748 mmHg 72%
19:00 +26°C° 0.6 mm 2 mps 748 mmHg 78%
20:00 +25°C° 0.6 mm 2 mps 748 mmHg 84%
21:00 +23°C° 0.5 mm 2 mps 748 mmHg 87%
22:00 +21°C° 0.5 mm 2 mps 749 mmHg 89%
23:00 +20°C° 0.5 mm 2 mps 749 mmHg 92%

23 June, Wednesday

Time Temperature Precipitation Wind Pressure Humidity
00:00 +20°C° 0 mm 2 mps 749 mmHg 91%
01:00 +19°C° 0 mm 2 mps 749 mmHg 90%
02:00 +20°C° 0 mm 1 mps 749 mmHg 89%
03:00 +20°C° 0.1 mm 1 mps 749 mmHg 90%
04:00 +21°C° 0.1 mm 1 mps 749 mmHg 91%
05:00 +20°C° 0.1 mm 2 mps 749 mmHg 93%
06:00 +21°C° 0.1 mm 2 mps 749 mmHg 89%
07:00 +24°C° 0.1 mm 3 mps 749 mmHg 86%
08:00 +25°C° 0.1 mm 3 mps 749 mmHg 82%
09:00 +26°C° 0 mm 3 mps 750 mmHg 76%
10:00 +28°C° 0 mm 3 mps 750 mmHg 69%
11:00 +29°C° 0 mm 4 mps 750 mmHg 62%
12:00 +30°C° 0 mm 4 mps 750 mmHg 59%
13:00 +31°C° 0 mm 3 mps 750 mmHg 56%
14:00 +31°C° 0 mm 3 mps 750 mmHg 53%
15:00 +31°C° 0 mm 3 mps 750 mmHg 55%
16:00 +31°C° 0 mm 3 mps 750 mmHg 58%
17:00 +31°C° 0 mm 3 mps 749 mmHg 60%
18:00 +30°C° 0.1 mm 2 mps 749 mmHg 67%
19:00 +28°C° 0.1 mm 2 mps 749 mmHg 73%
20:00 +26°C° 0.1 mm 1 mps 749 mmHg 80%
21:00 +26°C° 0 mm 1 mps 750 mmHg 82%
22:00 +25°C° 0 mm 1 mps 750 mmHg 84%
23:00 +24°C° 0 mm 1 mps 750 mmHg 87%

24 June, Thursday

Time Temperature Precipitation Wind Pressure Humidity
00:00 +23°C° 0 mm 1 mps 750 mmHg 89%
01:00 +23°C° 0 mm 2 mps 750 mmHg 90%
02:00 +23°C° 0 mm 2 mps 750 mmHg 92%
03:00 +21°C° 0 mm 2 mps 750 mmHg 93%
04:00 +21°C° 0 mm 2 mps 750 mmHg 93%
05:00 +21°C° 0 mm 2 mps 750 mmHg 93%
06:00 +24°C° 0 mm 2 mps 750 mmHg 88%
07:00 +26°C° 0 mm 3 mps 750 mmHg 83%
08:00 +27°C° 0 mm 3 mps 750 mmHg 77%
09:00 +28°C° 0 mm 3 mps 750 mmHg 72%
10:00 +30°C° 0 mm 3 mps 749 mmHg 66%
11:00 +31°C° 0 mm 3 mps 749 mmHg 60%
12:00 +32°C° 0.3 mm 4 mps 749 mmHg 60%
13:00 +32°C° 0.3 mm 4 mps 749 mmHg 59%
14:00 +32°C° 0.3 mm 4 mps 749 mmHg 59%
15:00 +31°C° 0.6 mm 3 mps 749 mmHg 62%
16:00 +31°C° 0.6 mm 3 mps 748 mmHg 65%
17:00 +30°C° 0.6 mm 2 mps 748 mmHg 68%
18:00 +28°C° 1.5 mm 4 mps 748 mmHg 75%
19:00 +25°C° 1.5 mm 5 mps 748 mmHg 82%
20:00 +21°C° 1.5 mm 6 mps 748 mmHg 89%
21:00 +21°C° 0.6 mm 5 mps 748 mmHg 91%
22:00 +20°C° 0.6 mm 4 mps 748 mmHg 92%
23:00 +19°C° 0.6 mm 3 mps 748 mmHg 94%
Show more